This is the latest recevied weather packets stored in our database for station/object DB0ROB-10. If no packets are shown the sender has not sent any weather packets the latest 1 day(s).
| Time | Temp. | Humidity | Pressure | Rain* | Wind** | Luminosity | Snow |
|---|---|---|---|---|---|---|---|
| 1777792587 | 25.56° C | 21% | 1015.9 hPa | - | - | - | - |
| 1777791687 | 22.22° C | 23% | 1015.8 hPa | - | - | - | - |
| 1777790786 | 18.89° C | 28% | 1015.9 hPa | - | - | - | - |
| 1777789886 | 23.33° C | 22% | 1015.8 hPa | - | - | - | - |
| 1777788986 | 25° C | 20% | 1015.7 hPa | - | - | - | - |
| 1777788086 | 25.56° C | 19% | 1015.8 hPa | - | - | - | - |
| 1777787186 | 27.78° C | 17% | 1015.7 hPa | - | - | - | - |
| 1777786286 | 25° C | 20% | 1015.8 hPa | - | - | - | - |
| 1777785386 | 23.33° C | 21% | 1015.7 hPa | - | - | - | - |
| 1777784486 | 23.33° C | 23% | 1015.7 hPa | - | - | - | - |
| 1777783585 | 18.89° C | 31% | 1015.8 hPa | - | - | - | - |
| 1777782685 | 16.67° C | 38% | 1015.9 hPa | - | - | - | - |
| 1777781785 | 15.56° C | 42% | 1016 hPa | - | - | - | - |
| 1777780885 | 15° C | 41% | 1016.1 hPa | - | - | - | - |
| 1777779984 | 15.56° C | 40% | 1016 hPa | - | - | - | - |
| 1777779084 | 15.56° C | 38% | 1016.1 hPa | - | - | - | - |
| 1777778184 | 15.56° C | 40% | 1016.1 hPa | - | - | - | - |
| 1777777283 | 15° C | 45% | 1016.1 hPa | - | - | - | - |
| 1777776383 | 15° C | 46% | 1016.1 hPa | - | - | - | - |
| 1777775482 | 15° C | 46% | 1016.2 hPa | - | - | - | - |
| 1777774582 | 15.56° C | 46% | 1016.2 hPa | - | - | - | - |
| 1777773682 | 15.56° C | 42% | 1016.3 hPa | - | - | - | - |
| 1777772787 | 15.56° C | 41% | 1016.4 hPa | - | - | - | - |
| 1777771887 | 16.11° C | 33% | 1016.5 hPa | - | - | - | - |
| 1777770987 | 16.11° C | 32% | 1016.4 hPa | - | - | - | - |
* Rain since midnight (hover to see other rain measurements)
** Current wind speed in m/s (hover to see current wind gust speed)